Flag for Switzerland Weather past 2 weeks in Geneva, Geneva, Switzerland

Now
42 °F

Quite cool.


Feels Like: 42 °F
Forecast: 36 / 58 °F
Wind: 2 mph from Southwest

Location: Geneve-Cointrin


UV Index: 3 (Moderate)

Visibility: N/A


Pressure: 29.97 "Hg

Humidity: 78%

Dew point: 36 °F

Location of GenevaLocation

Historic Weather in Geneva

°F

Geneva temperature yesterday

Maximum temperature yesterday: 61 °F (at 6:00 PM)
Minimum temperature yesterday: 35 °F (at 7:00 AM)
Average temperature yesterday: 47 °F

Past Weeks' High & Low Weather Summary

 TemperatureHumidityPressure
High74 °F (Apr 7, 5:00 PM)93% (Apr 8, 8:00 AM)30.32 "Hg (Apr 8, 8:00 AM)
Low35 °F (Apr 17, 7:00 AM)23% (Apr 15, 3:00 PM)29.63 "Hg (Apr 3, 6:00 PM)
Average54 °F60%30.05 "Hg
* Reported Apr 3 7:00 AM — Apr 18 7:00 AM, Geneva, Weather by CustomWeather, © 2014

Note: Actual official high and low records may vary slightly from our data, if they occured in-between our weather recording intervals... More about our weather records

Advertising

Historic Weather Conditions — Data for Previous 24 hours

 ConditionsComfort  
Time TempWeatherWind HumidityBarometerVisibility
7:00 AM
Apr 18
42 °FQuite cool.2 mph78%29.97 "HgN/A
6:00 AM40 °FQuite cool.2 mph84%29.99 "HgN/A
5:00 AM40 °FOvercast.2 mph83%30.01 "Hg25 mi
4:00 AM39 °FChilly.2 mph84%30.01 "HgN/A
3:00 AM40 °FChilly.1 mph83%30.03 "HgN/A
2:00 AM40 °FPassing clouds.1 mph84%30.04 "Hg25 mi
6:00 PM
Apr 17
61 °FRefreshingly cool.7 mph30%30.01 "HgN/A
5:00 PM60 °FScattered clouds.7 mph35%30.03 "Hg37 mi
4:00 PM59 °FRefreshingly cool.7 mph28%30.05 "HgN/A
3:00 PM57 °FRefreshingly cool.5 mph41%30.08 "HgN/A
2:00 PM55 °FPassing clouds.8 mph43%30.11 "Hg37 mi
1:00 PM54 °FCool.6 mph44%30.14 "HgN/A
12:00 PM51 °FCool.9 mph46%30.17 "HgN/A
10:00 AM46 °FCool.10 mph55%30.22 "HgN/A
9:00 AM44 °FQuite cool.5 mph61%30.23 "HgN/A
8:00 AM39 °FPassing clouds.2 mph69%30.24 "Hg43 mi
Weather by CustomWeather, © 2014

See weather overview